Alexandria Borg El Arab, Egypt

12:25 AM EET on February 15, 2016 (GMT +0200)
Borg El Arab International

Weather History for HEBA - March, 2013

Change the Weather History Date:

Wednesday, March 27, 2013

  Actual Average (HEAX) Record (HEAX)
Temperature  
Mean Temperature 63 °F -  
Max Temperature 73 °F 69 °F 84 °F (2001)
Min Temperature 53 °F 52 °F 48 °F (2002)
Degree Days  
Heating Degree Days 2    
Growing Degree Days 13 (Base 50)    
Moisture  
Dew Point 46 °F    
Average Humidity 58    
Maximum Humidity 88    
Minimum Humidity 31    
Precipitation  
Precipitation 0.00 in - - ()
Sea Level Pressure  
Sea Level Pressure 29.97 in    
Wind  
Wind Speed 8 mph ()    
Max Wind Speed 14 mph    
Max Gust Speed -    
Averages and records for this station are not official NWS values.
T = Trace of Precipitation, MM = Missing Value Source: Averaged Metar Reports

Daily Weather History Graph

Daily Weather History Graph

Search for Another Location

Airport or City:

Trip Planner

Search our weather history database for the weather conditions in past years. The results will help you decide how hot, cold, wet, or windy it might be!

Date:

Astronomy

Mar. 27, 2013 Rise Set
Actual Time 5:56 AM EET 6:17 PM EET
Civil Twilight 5:32 AM EET 6:41 PM EET
Nautical Twilight 5:04 AM EET 7:09 PM EET
Astronomical Twilight 4:35 AM EET 7:38 PM EET
Moon 6:34 PM EET (3/27) 5:37 AM EET (3/27)
Length of Visible Light 13h 09m
Length of Day
12h 20m
Full, 100% of the Moon is Illuminated
Mar 27
Full
Apr 3
Last Quarter
Apr 10
New
Apr 18
First Quarter
Apr 25
Full

Hourly Weather History & Observations

Time (EET) Temp. Dew Point Humidity Pressure Visibility Wind Dir Wind Speed Gust Speed Precip Events Conditions
12:00 AM 57.2 °F 51.8 °F 82% 29.92 in - SSW 9.2 mph - N/A   Clear
1:00 AM 57.2 °F 51.8 °F 82% 29.92 in - SW 6.9 mph - N/A   Clear
3:00 AM 55.4 °F 51.8 °F 88% 29.89 in - South 6.9 mph - N/A   Clear
4:00 AM 55.4 °F 51.8 °F 88% 29.89 in - SW 8.1 mph - N/A   Clear
5:00 AM 55.4 °F 51.8 °F 88% 29.92 in - SSW 6.9 mph - N/A   Clear
6:00 AM 53.6 °F 48.2 °F 82% 29.95 in - WSW 9.2 mph - N/A   Clear
7:00 AM 55.4 °F 48.2 °F 77% 29.95 in - WSW 10.4 mph - N/A   Clear
8:00 AM 57.2 °F 50.0 °F 77% 29.95 in - SW 8.1 mph - N/A   Clear
9:00 AM 62.6 °F 50.0 °F 63% 29.98 in - West 11.5 mph - N/A   Clear
10:00 AM 66.2 °F 50.0 °F 56% 29.98 in - WNW 12.7 mph - N/A   Clear
11:00 AM 68.0 °F 50.0 °F 52% 29.98 in - WNW 9.2 mph - N/A   Clear
12:00 PM 71.6 °F 44.6 °F 38% 30.01 in - WNW 10.4 mph - N/A   Clear
1:00 PM 71.6 °F 41.0 °F 33% 29.98 in - NW 13.8 mph - N/A   Clear
2:00 PM 73.4 °F 42.8 °F 33% 29.98 in - NW 13.8 mph - N/A   Clear
3:00 PM 73.4 °F 41.0 °F 31% 29.98 in - NNW 12.7 mph - N/A   Clear
4:00 PM 71.6 °F 39.2 °F 31% 29.98 in - NW 13.8 mph - N/A   Clear
5:00 PM 69.8 °F 39.2 °F 33% 29.98 in - North 11.5 mph - N/A   Clear
6:00 PM 69.8 °F 44.6 °F 40% 29.98 in - North 8.1 mph - N/A   Clear
7:00 PM 64.4 °F 41.0 °F 42% 30.01 in - North 6.9 mph - N/A   Clear
8:00 PM 66.2 °F 42.8 °F 43% 30.01 in - East 6.9 mph - N/A   Clear
9:00 PM 59.0 °F 42.8 °F 55% 30.01 in - East 8.1 mph - N/A   Clear
10:00 PM 57.2 °F 44.6 °F 63% 30.04 in - East 8.1 mph - N/A   Clear
11:00 PM 57.2 °F 42.8 °F 59% 30.04 in - East 8.1 mph - N/A   Clear